Atari, India

3:25 PM IST on December 08, 2016 (GMT +0530)
Amritsar

Weather History for VIAR - March, 2014

Change the Weather History Date:

Thursday, March 13, 2014

  Actual Average Record
Temperature  
Mean Temperature 62 °F -  
Max Temperature 75 °F 75 °F 87 °F (2008)
Min Temperature 48 °F 53 °F 43 °F (2015)
Degree Days  
Heating Degree Days 4    
Growing Degree Days 12 (Base 50)    
Moisture  
Dew Point 53 °F    
Average Humidity 73    
Maximum Humidity 94    
Minimum Humidity 39    
Precipitation  
Precipitation 0.00 in - - ()
Sea Level Pressure  
Sea Level Pressure 30.04 in    
Wind  
Wind Speed 2 mph ()    
Max Wind Speed 9 mph    
Max Gust Speed -    
Visibility 2.5 miles    
Events      
Averages and records for this station are not official NWS values.
T = Trace of Precipitation, MM = Missing Value Source: Averaged Metar Reports

Daily Weather History Graph

Daily Weather History Graph

Search for Another Location

Airport or City:

Trip Planner

Search our weather history database for the weather conditions in past years. The results will help you decide how hot, cold, wet, or windy it might be!

Date:

Astronomy

Mar. 13, 2014 Rise Set
Actual Time 6:43 AM IST 6:37 PM IST
Civil Twilight 6:19 AM IST 7:01 PM IST
Nautical Twilight 5:51 AM IST 7:29 PM IST
Astronomical Twilight 5:23 AM IST 7:58 PM IST
Moon 3:46 PM IST (3/13) 4:25 AM IST (3/13)
Length of Visible Light 12h 41m
Length of Day
11h 53m
Waxing Gibbous, 89% of the Moon is Illuminated
Mar 13
Waxing Gibbous
Mar 16
Full
Mar 24
Last Quarter
Mar 31
New
Apr 7
First Quarter

Hourly Weather History & Observations

Time (IST) Temp. Dew Point Humidity Pressure Visibility Wind Dir Wind Speed Gust Speed Precip Events Conditions
12:00 AM 55.4 °F 51.8 °F 88% 30.09 in 2.5 mi Calm Calm - N/A   Scattered Clouds
12:30 AM 55.4 °F 51.8 °F 88% 30.09 in 1.9 mi Calm Calm - N/A   Scattered Clouds
1:00 AM 53.6 °F 51.8 °F 94% 30.06 in 1.9 mi Calm Calm - N/A   Scattered Clouds
1:30 AM 53.6 °F 51.8 °F 94% 30.06 in 1.9 mi Calm Calm - N/A   Scattered Clouds
2:00 AM 53.6 °F 51.8 °F 94% 30.06 in 1.9 mi Calm Calm - N/A   Scattered Clouds
2:30 AM 53.6 °F 51.8 °F 94% 30.04 in 1.9 mi Calm Calm - N/A   Scattered Clouds
3:00 AM 51.8 °F 50.0 °F 94% 30.04 in 1.9 mi Calm Calm - N/A   Scattered Clouds
3:30 AM 53.6 °F 51.8 °F 94% 30.04 in 1.9 mi Calm Calm - N/A   Scattered Clouds
4:00 AM 51.8 °F 50.0 °F 94% 30.01 in 1.9 mi Calm Calm - N/A   Scattered Clouds
4:30 AM 51.8 °F 48.2 °F 88% 30.01 in 1.9 mi Calm Calm - N/A   Scattered Clouds
5:00 AM 51.8 °F 50.0 °F 94% 30.04 in 1.9 mi Calm Calm - N/A   Scattered Clouds
5:30 AM 52 °F 50 °F 89% 30.04 in 1 mi Calm Calm - -   Mist
5:30 AM 51.8 °F 50.0 °F 94% 30.04 in 1.9 mi Calm Calm - N/A   Scattered Clouds
6:00 AM 51.8 °F 48.2 °F 88% 30.04 in 1.9 mi Calm Calm - N/A   Scattered Clouds
6:30 AM 50.0 °F 48.2 °F 94% 30.04 in 1.9 mi Calm Calm - N/A   Scattered Clouds
7:00 AM 50.0 °F 48.2 °F 94% 30.04 in 1.9 mi Calm Calm - N/A   Scattered Clouds
7:30 AM 51.8 °F 48.2 °F 88% 30.06 in 2.5 mi Calm Calm - N/A   Scattered Clouds
8:00 AM 53.6 °F 50.0 °F 88% 30.06 in 2.5 mi Calm Calm - N/A   Scattered Clouds
8:30 AM 54 °F 50 °F 81% 30.08 in 2 mi Calm Calm - -   Mist
8:30 AM 53.6 °F 50.0 °F 88% 30.06 in 2.5 mi Calm Calm - N/A   Scattered Clouds
9:00 AM 59.0 °F 51.8 °F 77% 30.09 in 2.5 mi WNW 4.6 mph - N/A   Partly Cloudy
10:00 AM 64.4 °F 51.8 °F 64% 30.09 in 3.1 mi North 4.6 mph - N/A   Haze
10:30 AM 68.0 °F 51.8 °F 56% 30.09 in 3.7 mi Variable 2.3 mph - N/A   Haze
11:00 AM 68.0 °F 50.0 °F 52% 30.09 in 3.7 mi Variable 4.6 mph - N/A   Haze
11:30 AM 70 °F 50 °F 39% 30.08 in 2 mi NE 4.6 mph - -  
11:30 AM 69.8 °F 50.0 °F 49% 30.09 in 3.7 mi Variable 4.6 mph - N/A   Unknown
12:00 PM 71.6 °F 53.6 °F 53% 30.09 in 3.7 mi Variable 3.5 mph - N/A   Unknown
12:30 PM 71.6 °F 55.4 °F 57% 30.09 in 3.7 mi Variable 6.9 mph - N/A   Unknown
1:00 PM 73.4 °F 55.4 °F 53% 30.06 in 3.7 mi West 5.8 mph - N/A   Unknown
1:30 PM 73.4 °F 53.6 °F 50% 30.06 in 3.7 mi West 5.8 mph - N/A   Unknown
2:00 PM 73.4 °F 53.6 °F 50% 30.04 in 3.7 mi Variable 4.6 mph - N/A   Unknown
2:30 PM 73 °F 55 °F 43% 29.99 in 2 mi West 8.1 mph - -   Haze
2:30 PM 75.2 °F 55.4 °F 50% 30.04 in 3.1 mi West 9.2 mph - N/A   Haze
3:00 PM 75.2 °F 55.4 °F 50% 30.04 in 3.1 mi West 8.1 mph - N/A   Haze
3:30 PM 75.2 °F 55.4 °F 50% 30.04 in 3.1 mi West 8.1 mph - N/A   Haze
4:00 PM 75.2 °F 53.6 °F 47% 30.01 in 3.1 mi NW 8.1 mph - N/A   Haze
4:30 PM 75.2 °F 53.6 °F 47% 30.01 in 3.1 mi WNW 8.1 mph - N/A   Haze
5:00 PM 73.4 °F 53.6 °F 50% 30.01 in 3.1 mi NW 8.1 mph - N/A   Haze
5:30 PM 73 °F 56 °F 45% 29.98 in 2 mi WNW 5.8 mph - -   Haze
5:30 PM 73.4 °F 55.4 °F 53% 30.01 in 3.1 mi WNW 6.9 mph - N/A   Haze
6:00 PM 71.6 °F 57.2 °F 60% 30.01 in 3.1 mi WNW 5.8 mph - N/A   Haze
6:30 PM 68.0 °F 57.2 °F 68% 30.01 in 3.1 mi West 4.6 mph - N/A   Haze
7:30 PM 64.4 °F 55.4 °F 73% 30.01 in 2.5 mi Calm Calm - N/A   Haze
8:00 PM 64.4 °F 55.4 °F 73% 30.01 in 2.5 mi Calm Calm - N/A   Haze
8:30 PM 63 °F 56 °F 71% 30.00 in 0 mi Calm Calm - -   Mist
8:30 PM 62.6 °F 55.4 °F 77% 30.01 in 2.2 mi Calm Calm - N/A   Partly Cloudy
9:00 PM 60.8 °F 55.4 °F 82% 30.01 in 2.2 mi Calm Calm - N/A   Partly Cloudy
9:30 PM 59.0 °F 55.4 °F 88% 30.01 in 2.2 mi Calm Calm - N/A   Partly Cloudy
10:00 PM 59.0 °F 55.4 °F 88% 30.04 in 2.2 mi Calm Calm - N/A   Partly Cloudy
10:30 PM 59.0 °F 55.4 °F 88% 30.04 in 2.2 mi Calm Calm - N/A   Partly Cloudy
11:00 PM 57.2 °F 53.6 °F 88% 30.01 in 2.2 mi Calm Calm - N/A   Partly Cloudy
11:30 PM 56 °F 54 °F 90% 30.02 in 1 mi Calm Calm - -   Mist